Вернуться в каталог

STARLINK-4024

АктивенСвязьVLEO
NORAD 52599·PAYLOAD·🇺🇸 United States

Запущен May 14, 2022 с Cape Canaveral Space Force Station

Loading…

Ближайшие Пролёты (ближайшие 24 часа)

TLE

СвежийSource: CelesTrak SupGP

Эпоха: Sep 15, 2026, 02:04 UTC

1 52599C 22052B   26258.08659722  .00047232  00000+0  15191-2 0  2587
2 52599  53.1564 134.5496 0001276  87.5784 303.5337 15.31673108    13

Отслеживайте STARLINK-4024 в реальном времени с AllMySat

Download on the App Store